Location: Ostrava
(49.8330°N, 18.2830°E)
Time: 16:28:19
(UTC+02:00)

Cosmos 1263 Rocket - Visible Passes

Search period start: 30 June 2015 00:00
Search period end: 10 July 2015 00:00
Orbit: 225 x 284 km, 82.8° (Epoch: 30 June)

Date Brightness Start Highest point End Pass type
(mag) Time Alt. Az. Time Alt. Az. Time Alt. Az.
30 Jun 2.2 23:05:56 10° NNE 23:07:40 23° ENE 23:07:49 23° E visible
01 Jul 2.0 22:59:32 10° NNE 23:01:19 25° ENE 23:01:32 24° E visible
02 Jul 2.0 22:52:20 10° NNE 22:54:09 26° ENE 22:54:26 25° E visible
03 Jul 1.9 22:44:19 10° NNE 22:46:08 26° ENE 22:46:32 24° E visible
04 Jul 2.0 22:35:30 10° NNE 22:37:17 25° ENE 22:37:49 22° ESE visible
05 Jul 2.1 22:25:51 10° NNE 22:27:37 24° ENE 22:28:18 20° ESE visible
06 Jul 2.2 22:15:25 10° NNE 22:17:07 22° ENE 22:17:59 17° ESE visible
07 Jul 2.4 22:04:10 10° NNE 22:05:47 20° ENE 22:06:51 14° ESE visible
08 Jul 2.6 21:52:09 10° NNE 21:53:37 17° ENE 21:54:55 11° ESE visible
09 Jul 2.8 21:39:22 10° NNE 21:40:39 15° ENE 21:41:57 10° ESE visible
09 Jul 3.7 23:09:47 10° WNW 23:10:21 11° W 23:10:52 10° WSW visible
